Theta_e
330 330 331 332 332 332 332 332 333 331 329 329 329 330 330 329 327 328 328 328 328 329 328 328 329 328 328 329 329 328 328 328 328 329 329 329 328 328 328 328 328 327 328 327 325 325 325 326 326 326 326 325 325 325 325 325 325 326 325 325 325 324 324
330 330 330 331 331 331 332 332 333 331 329 329 330 330 330 329 328 329 329 328 328 329 328 329 329 328 328 329 329 328 329 329 328 329 329 329 328 327 327 328 328 327 327 327 326 325 324 325 326 325 326 326 326 326 325 325 326 325 325 325 325 324 324
328 329 330 330 331 331 332 333 332 331 330 331 331 330 331 330 329 329 328 328 329 329 328 328 328 329 328 330 330 328 329 329 328 329 330 329 328 327 326 327 327 327 327 327 326 326 325 324 325 325 325 326 325 326 325 325 325 324 323 324 323 323 323
328 329 330 330 330 331 331 332 332 331 331 332 331 331 331 330 329 329 328 328 329 329 328 328 329 329 329 330 330 328 329 329 328 328 330 330 329 327 327 327 327 327 326 326 326 326 326 325 324 324 325 325 325 325 325 325 324 323 323 323 322 322 321
329 330 330 330 330 330 331 331 332 331 331 332 331 331 331 330 329 329 328 328 329 329 328 328 329 330 329 330 331 329 329 329 328 329 329 329 329 328 327 327 327 327 326 326 326 326 326 326 325 325 325 325 325 326 325 324 324 323 323 323 322 322 322
330 331 330 329 329 330 330 331 332 331 330 331 332 330 329 330 330 329 328 329 330 329 329 330 330 330 330 331 331 330 329 328 329 329 328 328 328 328 328 327 327 328 327 327 327 326 326 326 326 325 325 326 326 325 324 324 324 323 323 323 322 322 321
330 331 330 329 329 330 330 331 332 331 330 331 331 330 330 331 330 329 328 329 329 329 329 330 330 329 329 330 330 329 329 328 328 328 328 327 328 328 328 327 327 328 327 327 327 327 326 326 326 326 325 326 325 324 324 324 323 323 323 322 321 320 319
331 331 331 330 330 330 331 331 332 332 331 331 331 331 332 331 329 327 327 327 327 328 328 328 328 328 328 328 329 329 328 328 328 328 327 328 328 328 328 328 328 328 327 327 327 326 325 325 326 326 325 325 325 324 323 323 322 322 321 320 320 318 316
332 330 329 331 331 331 331 331 331 331 332 332 332 332 331 329 326 325 325 325 326 327 326 326 327 328 328 327 327 328 327 327 328 327 327 328 328 328 328 328 328 328 327 327 327 326 325 326 326 326 325 325 325 324 323 322 320 320 320 319 319 317 315
333 330 329 330 331 331 331 331 331 331 331 332 332 331 329 327 326 324 323 324 326 326 325 325 326 327 328 327 327 327 327 326 327 326 326 327 327 327 327 327 328 328 327 327 327 326 325 326 326 327 326 326 325 324 324 322 321 320 319 318 318 315 313
333 331 329 330 331 332 332 331 331 331 332 332 331 330 328 327 326 324 323 324 324 325 324 324 325 327 328 328 327 327 326 326 326 326 326 326 326 327 327 326 327 328 326 326 326 325 325 326 326 327 326 326 324 323 322 322 321 320 319 317 317 315 313
332 332 330 329 330 332 332 332 332 332 332 331 330 328 326 327 327 325 324 323 323 324 323 322 326 328 328 328 328 327 326 326 327 326 326 326 326 326 327 327 327 327 327 327 326 325 325 325 326 327 326 325 323 322 321 320 320 319 318 317 316 315 313
331 332 331 330 329 331 332 332 333 332 331 330 329 326 326 327 327 325 325 324 323 323 321 321 325 327 326 326 327 326 326 326 326 326 325 325 325 326 326 327 327 326 327 326 326 326 326 325 326 327 325 324 323 322 321 321 319 318 318 317 316 315 313
329 330 331 330 330 331 331 331 332 332 331 330 328 326 327 327 326 325 325 324 323 322 321 321 324 325 324 323 323 326 327 326 325 325 325 325 325 326 326 326 327 326 326 326 326 326 326 326 326 327 325 325 325 323 321 321 320 318 318 317 316 315 313
329 330 330 331 330 329 328 330 331 331 331 330 328 327 326 324 324 325 326 325 323 322 322 323 324 324 323 321 322 326 327 326 325 326 325 325 325 325 325 326 326 326 326 327 326 325 326 327 327 327 326 326 325 324 322 322 320 318 318 317 316 314 312
330 331 330 331 330 328 328 331 331 331 331 330 329 328 325 323 325 326 325 324 322 322 324 325 324 324 321 320 323 327 327 326 326 326 325 325 325 325 325 325 326 326 326 326 326 325 326 326 326 326 326 326 325 324 323 322 320 319 318 316 315 313 311
330 331 330 331 330 328 329 330 330 330 330 329 329 328 325 325 326 325 324 323 323 323 324 325 325 323 319 319 324 327 327 327 326 324 324 324 325 325 325 325 326 326 326 326 325 325 325 326 326 326 326 325 325 324 323 321 319 319 318 316 315 314 312
330 332 331 330 330 329 329 329 330 330 329 329 329 326 324 324 325 324 323 323 323 322 321 323 324 322 319 319 323 325 325 325 324 323 323 323 323 323 323 324 325 325 326 325 325 325 325 325 326 325 325 326 325 324 323 321 319 318 317 316 316 315 312
331 332 331 330 330 329 328 328 329 329 328 329 326 322 322 324 324 323 323 323 324 321 319 323 324 322 321 322 323 324 324 324 323 323 323 323 323 324 323 321 322 324 325 325 325 325 325 325 325 325 325 325 325 324 323 322 321 320 319 318 317 316 313
331 331 330 329 329 330 329 328 329 329 328 326 322 319 323 325 323 323 324 324 324 321 319 323 324 322 322 323 323 323 323 323 322 322 323 323 323 323 322 320 320 322 324 325 326 326 325 325 325 325 325 325 324 324 323 322 322 321 320 319 318 316 314
331 331 330 329 329 329 329 328 328 328 326 323 320 320 324 325 323 323 323 323 323 320 318 322 324 322 321 322 321 322 323 322 322 322 322 321 321 321 320 319 319 321 324 325 325 326 326 326 325 325 325 325 324 323 323 322 321 321 320 318 318 316 313
331 331 329 329 328 328 328 328 327 325 322 322 323 323 323 325 324 323 323 323 323 320 317 321 322 321 321 322 321 321 322 322 322 321 321 321 321 320 319 319 319 321 324 325 325 326 326 325 325 325 325 325 324 323 322 320 319 319 318 317 316 315 313
331 330 329 328 328 328 328 327 326 324 322 323 324 323 323 324 324 323 323 323 322 319 318 321 322 320 321 322 321 321 322 321 321 320 320 321 320 318 319 319 319 321 324 324 325 326 325 325 325 324 324 323 323 322 321 318 317 317 317 316 315 314 313
330 330 329 329 328 328 327 325 324 324 325 325 324 322 322 323 323 323 323 322 321 318 318 320 321 320 321 322 321 321 321 321 320 320 320 320 319 318 319 318 318 320 323 325 326 326 325 324 324 323 322 322 321 321 320 318 317 316 316 315 314 313 313
328 329 329 329 329 328 326 325 323 324 325 325 324 322 322 321 321 322 322 321 320 318 317 318 319 319 320 321 321 320 321 320 320 319 319 320 319 319 318 318 316 318 323 325 325 324 323 323 322 322 321 321 320 319 318 317 316 315 315 314 313 313 314
327 328 328 328 328 328 327 325 323 323 324 324 323 322 321 320 320 321 321 320 319 318 317 317 318 318 320 321 320 319 320 320 319 319 319 319 319 319 318 317 316 318 322 325 325 324 323 322 322 322 321 321 320 319 319 317 317 317 317 317 317 317 318
326 327 328 328 328 327 327 325 323 323 324 323 322 322 321 320 320 320 319 319 318 318 317 317 317 318 319 320 320 318 318 318 319 318 319 319 319 319 318 318 318 318 320 323 324 323 323 322 322 322 322 321 321 320 319 319 319 319 319 318 319 319 319
325 326 327 328 327 326 326 324 323 322 322 322 321 320 320 319 320 320 319 318 318 318 318 316 316 317 318 319 319 317 316 317 318 318 318 319 319 319 319 319 319 318 319 320 321 320 320 320 320 321 321 321 321 320 320 320 319 319 319 318 318 318 318
324 324 327 327 326 324 323 322 322 322 322 321 320 319 319 319 319 319 319 318 317 317 317 317 316 317 318 318 318 317 316 317 318 319 319 319 319 320 320 320 319 319 318 318 318 318 318 319 319 319 319 319 319 319 319 318 318 317 317 317 316 316 316
322 322 324 326 324 323 321 320 320 321 321 320 319 319 319 319 319 319 318 316 313 312 313 315 315 315 317 317 317 317 317 318 319 319 319 319 319 319 320 319 319 318 318 318 317 317 318 318 318 318 318 318 318 318 318 318 317 317 317 317 316 316 316
318 318 321 323 321 321 320 319 319 319 320 319 319 319 319 318 318 318 317 314 311 310 311 312 313 313 314 315 315 316 318 319 319 319 318 319 319 319 319 318 318 318 318 318 318 317 317 318 318 318 318 318 318 318 318 318 318 318 317 317 317 318 318
312 313 318 321 320 320 320 319 318 318 319 319 319 318 318 318 318 317 315 313 313 313 312 313 314 313 313 314 314 314 316 318 318 319 319 319 318 318 318 319 319 319 319 319 318 318 318 318 318 318 318 318 318 318 318 318 318 318 317 317 317 318 319
311 310 313 317 319 319 319 318 318 318 318 318 318 317 317 317 317 315 314 313 314 314 314 315 316 316 316 316 315 315 316 317 318 319 319 319 319 319 319 320 320 320 319 319 318 318 318 318 317 317 317 317 317 317 316 316 316 315 315 315 315 315 316
312 310 310 312 315 316 317 317 317 317 317 317 317 316 316 316 316 314 314 314 314 315 315 315 316 316 317 317 317 317 317 317 318 319 319 319 319 318 318 319 318 317 317 316 316 315 315 314 313 312 312 312 311 310 309 309 308 307 307 306 306 306 306
311 310 309 310 311 312 312 313 314 314 314 315 315 315 315 315 315 314 313 313 314 314 315 315 315 315 315 315 315 315 316 317 317 317 317 318 317 316 316 315 315 314 313 312 311 310 309 308 306 306 305 304 304 303 302 301 301 301 300 300 300 300 300
308 308 308 308 308 308 308 309 310 311 310 310 311 313 313 313 313 313 312 311 311 312 313 314 314 313 313 312 311 310 310 312 312 312 312 314 313 311 310 309 308 308 306 305 304 303 302 301 301 300 300 300 299 299 299 299 299 300 300 300 300 300 300
305 305 305 305 305 305 305 306 306 307 307 307 308 309 309 309 309 309 308 307 306 307 308 308 308 308 309 310 309 307 306 305 304 303 303 305 304 302 302 301 301 301 300 300 299 299 299 299 299 299 299 299 300 300 300 300 301 301 301 301 301 301 301
Wind_Speed
21 19 21 24 23 23 23 22 23 24 25 24 22 21 21 20 19 19 18 16 13 14 16 16 16 17 17 17 17 16 16 16 16 14 15 16 16 15 14 12 10 7 8 10 9 11 14 16 15 13 13 13 13 12 10 10 8 8 9 9 8 8 8
20 18 19 23 24 23 23 22 22 24 25 24 22 21 20 19 18 18 18 16 15 16 17 17 17 18 18 18 18 18 17 17 16 13 14 15 15 14 14 14 10 8 10 11 10 11 13 17 18 16 16 16 15 13 12 11 10 9 9 9 9 9 8
22 21 21 23 25 23 22 23 22 24 25 23 21 20 19 18 18 18 18 17 17 18 18 18 18 18 18 17 18 19 18 17 17 15 14 14 14 14 14 15 13 11 13 14 13 13 14 15 17 18 19 18 18 16 13 13 12 12 10 10 9 8 7
24 24 24 25 26 25 25 25 24 24 24 22 20 19 19 18 18 18 18 18 18 18 18 19 19 18 17 17 17 17 18 17 17 16 15 14 14 15 15 16 15 13 12 12 13 14 15 15 15 18 20 18 18 16 15 15 14 12 11 9 7 5 5
25 26 26 26 27 27 27 27 25 23 23 22 20 20 21 20 19 18 18 19 18 17 18 19 18 17 17 17 16 16 18 18 16 16 17 16 15 16 16 16 15 14 11 10 11 12 13 13 13 17 21 19 18 17 16 16 15 12 10 8 6 4 4
25 26 26 26 27 28 27 27 26 24 22 22 21 23 22 19 18 18 18 19 18 18 18 18 17 17 17 17 16 17 18 18 16 16 17 16 15 15 15 16 15 14 12 11 11 11 12 12 12 15 20 19 19 20 18 17 15 13 11 8 5 4 4
25 25 26 26 27 27 27 27 26 25 23 23 23 23 20 18 18 17 17 18 18 19 19 18 16 16 16 16 16 17 18 18 16 16 17 16 14 14 14 15 14 13 12 12 12 13 14 13 13 16 20 20 20 21 20 17 15 14 13 11 8 6 5
24 24 26 26 26 27 27 26 26 25 23 23 23 21 19 19 18 17 17 17 18 19 19 18 16 15 16 17 16 16 17 17 16 16 16 15 14 15 15 14 13 13 13 13 13 13 14 13 13 16 20 22 23 22 19 17 16 14 13 12 11 9 6
25 23 25 27 27 27 27 26 26 24 23 23 22 21 19 18 18 18 18 18 19 19 18 17 16 15 16 17 16 16 16 17 17 16 16 15 14 15 16 15 14 13 13 14 14 14 13 14 14 16 19 22 24 24 21 19 18 17 15 13 11 10 7
25 23 25 27 27 27 28 26 25 24 23 23 22 20 20 19 19 19 19 19 20 20 18 16 16 16 16 16 16 16 16 17 17 16 16 15 14 15 15 15 14 14 14 14 15 15 14 14 15 16 19 20 20 22 23 24 22 20 18 15 12 10 9
26 25 25 27 29 29 29 28 27 26 24 23 22 21 21 20 19 19 20 20 20 20 18 17 16 16 16 17 16 17 17 17 17 17 16 14 15 15 15 15 15 14 15 15 16 16 15 16 16 16 18 21 21 17 16 21 24 21 18 16 13 11 9
27 27 27 29 31 31 32 31 30 28 25 23 21 21 21 21 19 19 20 20 19 19 18 18 17 16 16 16 16 17 17 16 16 16 16 15 15 16 15 16 16 15 15 16 17 16 16 17 17 16 18 20 22 18 12 14 20 20 17 15 12 11 10
27 28 28 31 33 33 33 33 31 28 25 22 20 20 21 20 20 21 21 19 18 18 18 18 18 17 15 15 15 16 16 16 16 16 15 15 15 16 15 15 16 15 15 15 16 16 16 18 18 18 20 20 21 20 15 13 16 16 15 15 12 11 11
27 27 29 33 34 32 30 30 29 27 25 22 20 21 21 21 22 22 21 19 16 17 19 19 19 16 14 13 14 15 15 15 15 14 15 15 14 15 15 14 15 14 14 15 16 17 17 19 21 21 22 22 21 22 20 17 17 16 14 15 14 13 13
27 27 30 33 32 29 28 29 29 27 25 23 22 21 21 22 23 23 21 18 16 17 18 18 17 15 13 13 15 16 15 14 15 14 14 14 13 13 13 14 14 13 13 15 16 17 17 20 23 25 25 24 21 21 19 19 20 20 17 14 14 15 16
27 27 29 31 31 29 29 30 30 28 25 23 22 20 20 22 23 22 20 18 17 19 19 17 16 14 12 14 16 16 15 14 14 14 13 12 12 12 13 13 13 12 13 14 15 16 16 18 22 25 26 26 22 19 17 19 22 23 21 17 14 15 17
27 27 28 29 29 28 28 29 29 27 24 23 21 18 19 21 22 20 18 19 19 20 19 18 16 13 12 14 16 15 15 15 14 12 10 10 11 12 12 13 12 12 13 13 14 15 16 17 20 22 24 26 25 20 16 15 18 22 22 18 15 14 16
26 26 27 28 28 26 26 26 28 27 24 22 20 18 20 21 21 19 19 20 19 17 17 19 17 13 12 14 15 15 15 16 14 11 9 10 11 9 9 10 10 11 12 13 14 16 16 17 18 20 22 24 24 21 17 14 14 17 18 17 15 15 16
25 26 28 29 27 26 26 26 27 27 24 21 19 20 22 22 20 20 20 20 18 14 16 19 17 14 15 16 16 15 15 15 13 12 10 10 10 8 6 6 8 9 12 14 15 16 16 17 18 19 21 23 24 22 20 17 14 14 15 15 15 15 16
26 27 30 30 28 26 27 27 27 27 23 21 20 22 24 21 20 21 20 20 18 14 16 20 18 16 18 18 16 14 15 14 13 13 11 9 10 9 5 5 6 8 10 12 14 15 16 17 18 19 20 23 25 23 21 19 17 15 15 16 16 16 16
28 29 30 30 29 28 29 29 28 26 22 21 22 24 25 22 21 21 20 21 19 15 16 20 18 17 18 17 16 15 15 14 13 13 11 9 9 8 6 4 5 7 9 11 14 15 16 17 17 18 19 20 22 21 19 19 19 17 16 18 18 16 16
29 29 31 31 30 30 31 30 28 25 23 23 24 26 26 23 22 22 21 22 19 15 17 20 18 17 18 16 16 16 15 14 14 13 12 11 9 7 6 4 4 7 9 10 13 15 15 16 16 17 17 17 18 19 18 18 19 18 18 19 19 17 17
30 31 32 32 31 32 31 30 28 27 27 26 26 28 27 24 22 21 22 22 18 15 18 20 17 17 17 17 17 17 17 15 15 14 13 13 10 7 7 4 3 6 8 9 12 15 15 15 15 14 14 16 17 16 15 17 19 18 17 18 18 18 18
31 33 33 31 32 32 31 29 29 31 32 30 28 29 29 26 23 21 22 22 17 16 19 19 17 17 17 17 17 18 18 17 16 13 13 13 10 8 8 6 4 6 9 10 12 14 14 13 12 11 11 14 14 11 11 15 17 17 18 19 19 20 19
29 34 34 31 32 34 33 31 31 33 35 33 31 30 29 28 25 21 22 21 18 18 19 18 17 17 18 17 17 17 18 17 15 13 11 11 10 9 9 7 3 5 9 10 10 11 12 12 10 9 10 11 11 8 9 12 15 15 16 18 19 19 18
27 34 34 31 32 36 35 32 31 34 34 33 32 30 28 28 25 22 22 21 20 20 19 18 17 17 17 18 17 17 17 16 15 12 11 11 11 11 10 7 4 5 8 10 9 8 10 12 10 10 12 13 11 11 11 13 14 14 13 14 14 13 12
26 34 35 33 35 37 36 34 33 34 34 31 31 30 27 27 25 22 22 21 21 20 19 18 17 16 17 18 17 16 16 16 15 14 13 14 13 12 10 8 5 6 8 9 8 7 9 11 11 11 13 13 12 11 11 11 13 13 13 13 13 12 12
25 32 34 35 38 38 36 36 35 34 34 32 31 30 27 25 24 22 22 21 20 19 18 17 18 17 17 18 17 16 16 15 15 15 15 15 14 13 11 10 8 8 9 9 8 8 9 9 10 10 11 12 12 13 13 12 12 13 14 14 15 15 15
23 29 32 34 36 36 35 36 36 34 34 33 31 29 27 25 24 23 21 18 17 17 18 18 19 19 19 18 17 17 16 15 16 16 16 16 15 14 13 12 11 10 10 10 9 10 10 10 9 9 9 9 11 13 14 14 14 14 15 16 17 18 18
21 26 30 32 34 35 35 34 35 35 34 32 30 29 27 25 24 22 20 17 15 16 18 19 19 20 20 20 18 18 18 17 16 16 16 16 16 15 14 12 12 11 10 9 9 10 10 10 9 9 9 9 9 10 11 12 13 13 14 16 17 18 20
20 25 30 32 32 34 34 33 34 34 34 32 30 29 27 26 24 21 19 18 16 17 18 18 17 18 20 20 19 18 17 17 16 15 15 15 14 14 14 13 12 11 11 10 10 10 10 10 10 10 10 10 11 12 12 13 14 15 16 17 18 19 20
20 24 30 33 32 31 31 30 29 30 31 32 31 29 28 26 24 22 21 20 19 18 19 19 17 17 18 18 18 18 17 16 16 15 14 14 14 14 14 13 12 11 11 11 11 11 11 12 13 13 14 14 15 15 16 17 18 18 19 20 21 22 22
19 23 27 31 32 30 29 27 27 27 28 29 29 28 27 26 25 24 23 22 21 19 19 20 19 17 17 16 16 16 15 15 15 16 15 15 15 14 14 13 12 11 10 11 11 11 12 13 13 14 15 16 17 17 18 19 19 20 20 21 22 23 24
15 21 24 25 27 27 26 25 25 24 24 24 25 25 24 24 25 24 22 21 21 20 19 19 18 18 17 16 15 14 14 13 14 15 15 15 15 14 13 12 11 11 10 10 10 11 12 12 13 14 15 16 17 17 17 18 19 20 21 21 22 23 23
10 15 19 20 22 23 22 21 20 20 20 20 21 21 20 20 21 21 20 19 18 18 17 16 16 15 15 14 14 13 13 14 15 15 15 15 14 13 12 11 11 11 11 11 12 13 13 14 15 15 16 16 17 17 17 18 18 18 19 19 19 19 20
11 13 15 16 19 21 21 20 19 18 18 18 19 20 19 17 17 17 16 15 14 13 12 12 12 11 11 12 12 10 10 12 13 13 13 14 13 11 10 11 12 12 13 13 14 14 14 14 14 14 14 14 14 14 14 15 15 14 14 14 15 16 17
16 16 16 16 18 21 22 21 20 18 17 16 17 19 18 16 15 15 15 14 13 10 8 7 5 5 7 9 9 8 8 8 7 7 7 8 8 8 9 10 11 11 11 10 10 10 10 10 10 10 10 10 10 10 11 11 11 11 12 12 13 14 15
Wind_Direction
209 211 212 209 206 205 202 202 203 203 205 205 203 201 198 200 201 202 203 197 195 198 195 198 203 201 200 204 207 206 205 205 204 203 200 202 201 197 199 206 219 233 215 210 216 202 182 176 183 190 189 189 189 189 189 185 189 198 198 193 182 175 178
210 215 215 211 207 205 203 203 203 203 203 203 202 200 200 203 203 202 201 195 196 198 194 197 201 200 201 203 204 201 201 203 204 202 202 208 208 203 204 203 204 204 190 196 213 214 197 181 182 189 187 188 189 188 190 185 182 186 186 179 173 174 182
209 214 214 209 204 204 205 204 202 201 202 201 201 200 201 206 203 200 196 191 195 196 194 197 197 198 200 200 201 201 200 200 200 202 204 208 209 208 212 209 206 198 186 192 201 203 206 196 190 191 188 187 187 187 191 188 178 175 177 176 173 174 179
207 211 212 206 201 202 202 203 203 202 201 199 198 198 198 202 200 195 191 189 195 196 192 195 195 196 196 195 197 200 202 203 201 200 202 205 205 206 212 215 219 218 210 210 205 197 201 203 198 193 189 187 187 187 187 181 175 178 184 185 181 178 173
210 213 212 205 200 200 201 203 205 204 202 195 194 196 193 194 195 193 192 189 192 195 191 191 192 193 193 192 195 197 200 204 203 200 200 201 203 205 210 215 221 226 230 231 220 205 200 206 210 196 185 183 186 185 182 176 175 184 197 199 190 191 198
212 215 215 207 200 199 200 204 205 203 200 194 193 195 191 191 195 195 194 189 189 192 188 188 191 193 193 193 194 196 198 200 201 203 202 203 205 206 209 214 217 219 222 224 221 216 206 204 215 200 182 181 185 180 177 179 180 185 204 219 213 215 249
215 216 216 209 201 200 199 202 203 199 197 196 195 194 191 194 197 196 193 187 188 191 188 188 193 194 195 195 196 198 199 200 202 205 206 206 206 206 208 213 216 215 213 213 214 217 212 205 208 200 182 176 180 178 174 180 188 192 200 209 216 232 257
219 218 218 213 206 203 201 200 201 199 195 196 195 194 194 196 195 193 193 189 189 193 192 192 194 195 196 196 197 199 199 200 204 207 206 206 205 204 207 213 218 213 207 209 209 213 216 211 208 204 191 176 173 176 177 182 194 202 206 205 207 220 236
222 217 217 215 210 206 204 202 201 198 196 197 196 196 198 198 194 191 193 191 190 193 195 195 195 195 196 197 198 199 199 202 205 206 204 204 206 208 209 214 216 212 206 206 207 209 213 214 214 212 204 190 179 178 180 185 195 205 213 217 212 207 210
222 217 212 212 210 206 204 203 200 196 197 197 198 200 200 198 193 192 192 190 191 194 196 197 196 193 193 196 198 197 201 205 205 208 207 203 204 208 211 213 213 211 209 206 206 209 210 211 215 214 210 208 199 188 184 187 195 205 210 216 220 209 200
224 220 212 209 211 207 202 201 198 195 195 196 200 202 200 196 192 192 192 189 189 192 195 195 194 192 192 195 195 195 199 203 206 209 209 206 205 205 209 212 212 211 209 206 205 209 211 207 209 213 213 212 209 204 199 192 193 203 208 208 214 215 209
229 225 217 211 211 209 203 198 195 193 193 195 200 201 198 195 192 191 192 190 187 188 191 192 192 193 193 193 194 194 195 199 205 209 209 208 207 206 209 212 212 210 206 207 207 208 212 207 203 206 209 207 204 208 219 205 195 200 207 208 211 215 223
232 229 223 217 215 212 205 197 190 188 189 193 196 196 196 196 194 190 189 191 188 184 186 187 188 191 191 192 195 195 194 195 200 205 207 206 203 204 209 210 210 210 207 208 209 209 211 209 203 201 201 202 203 207 214 214 207 206 208 215 223 222 223
232 229 227 223 220 217 209 199 190 186 186 190 190 190 194 195 191 189 189 192 189 183 183 183 183 186 188 194 198 196 194 194 195 197 200 201 199 200 206 209 209 210 208 206 210 210 209 207 205 203 201 204 207 209 216 220 218 218 213 215 225 228 225
235 231 227 226 225 221 212 204 195 187 184 186 185 186 190 189 187 188 190 193 189 182 182 183 182 185 189 194 195 194 194 194 192 192 194 198 198 195 201 209 210 209 206 206 210 211 207 206 207 205 206 211 209 206 218 225 223 225 225 221 220 222 225
237 232 225 226 226 218 211 207 198 189 185 183 181 184 187 185 184 187 190 190 184 181 182 182 183 186 188 189 190 189 191 190 188 188 190 195 198 196 198 206 209 206 203 204 207 208 206 206 209 208 209 214 210 204 217 227 226 228 230 226 221 220 223
238 230 223 225 223 213 209 209 200 190 184 179 180 185 187 185 183 184 184 180 176 178 182 184 183 180 181 187 187 183 183 183 181 179 182 189 194 196 201 208 210 207 204 204 203 204 207 209 212 214 214 215 212 209 218 227 225 228 230 229 229 228 228
240 229 222 225 222 211 207 208 201 192 183 178 182 185 183 181 179 177 174 170 169 173 181 186 183 174 174 180 177 173 175 178 175 168 170 179 182 179 190 205 213 215 214 212 208 206 209 212 215 217 216 216 213 211 214 219 220 224 230 235 237 235 230
237 226 222 223 222 211 203 202 199 192 184 180 182 179 172 169 167 166 166 166 167 169 175 178 174 167 168 168 164 164 170 174 173 168 166 175 178 173 177 199 214 222 222 219 216 213 213 213 214 216 215 214 213 211 211 215 219 222 228 236 241 241 236
232 224 219 220 219 208 198 197 196 194 190 183 177 172 167 163 162 163 167 170 173 174 174 171 167 165 168 167 164 166 169 171 172 170 168 173 179 183 194 214 225 225 220 217 216 217 216 212 212 214 215 217 217 212 209 216 221 222 226 235 241 244 244
231 222 214 214 213 204 196 196 196 196 192 179 169 166 166 168 169 171 174 177 178 180 177 171 168 168 169 168 169 171 171 171 172 174 176 175 174 182 200 226 238 227 216 213 214 215 212 210 213 215 214 219 219 211 209 217 219 218 224 234 238 238 240
233 223 211 208 208 202 195 194 194 191 184 174 167 165 168 173 176 176 179 181 182 182 177 172 171 173 172 171 173 175 175 174 176 181 182 173 168 181 200 217 232 221 214 212 210 209 208 208 211 212 210 213 213 210 215 219 216 215 222 230 235 233 233
234 227 214 206 206 201 193 191 190 183 178 174 169 168 171 176 178 177 178 182 184 181 175 173 174 176 177 177 175 178 180 176 176 180 176 169 170 178 185 191 194 193 198 202 202 202 205 205 203 202 203 203 204 211 222 219 213 216 222 227 232 233 232
230 228 221 209 202 196 186 186 187 181 177 174 171 173 176 177 177 179 182 184 184 180 177 178 180 180 182 183 182 182 182 178 176 176 172 171 175 176 180 189 187 177 183 191 199 202 200 193 189 195 202 202 204 217 228 219 215 219 222 226 231 235 237
228 224 220 209 199 191 183 183 185 179 175 174 172 174 177 175 175 180 185 187 185 182 182 183 184 184 185 189 190 188 185 182 182 181 173 173 178 177 180 186 177 171 181 188 197 201 193 177 166 173 187 192 196 204 208 209 213 215 219 224 229 233 240
228 218 211 203 194 186 181 182 184 177 173 174 173 174 177 175 173 178 185 187 185 184 185 184 184 186 188 191 193 192 188 186 186 180 167 168 178 181 178 178 171 170 180 187 190 190 186 181 177 178 181 182 180 179 183 192 198 200 204 211 215 219 225
218 212 205 198 190 182 179 182 184 177 174 173 172 175 178 175 172 176 182 185 185 186 186 186 184 185 187 190 191 192 194 192 189 182 168 164 174 178 172 169 173 172 171 175 180 176 175 185 197 203 201 201 198 195 197 199 198 200 204 209 216 224 229
194 198 196 191 184 179 179 182 181 175 172 173 174 175 178 176 172 173 178 184 188 190 190 189 187 184 184 186 187 192 195 191 187 184 174 168 174 177 170 167 172 172 165 164 171 172 170 179 197 208 215 220 221 223 228 229 224 221 223 228 234 241 246
174 178 186 186 179 175 176 176 175 172 172 174 175 175 175 174 172 173 178 187 194 197 195 191 189 186 182 181 183 187 186 177 172 175 171 168 173 176 172 172 177 176 169 168 175 180 182 187 197 207 215 221 223 227 232 236 236 235 236 239 244 249 253
159 160 173 180 177 174 174 171 169 172 176 175 173 173 173 171 172 175 180 186 191 194 190 186 188 190 189 185 181 180 177 170 165 167 167 167 172 178 179 177 179 180 176 176 183 191 197 202 207 214 220 223 228 231 235 240 243 246 247 248 249 251 254
139 144 159 167 166 167 170 168 166 169 173 171 169 172 174 171 170 174 176 176 178 180 177 173 177 186 192 194 191 185 180 177 173 173 174 174 177 184 188 185 183 184 186 188 193 199 206 214 219 225 230 234 238 241 243 246 248 250 253 255 256 256 257
102 120 143 155 158 160 164 164 161 162 167 168 168 170 174 173 171 171 173 173 175 178 175 168 167 174 181 188 194 192 189 188 185 184 185 187 188 190 194 195 192 193 197 201 205 208 212 219 225 230 235 240 244 246 249 250 250 251 253 255 256 256 256
68 88 113 134 145 151 154 156 157 159 162 166 166 166 169 171 169 166 168 172 173 176 177 171 167 168 169 172 179 186 190 192 194 192 191 194 196 196 197 200 202 205 208 212 217 222 225 229 233 237 240 243 245 248 251 253 256 258 259 260 260 259 259
43 62 81 103 121 131 139 145 149 152 153 157 162 163 164 168 168 164 164 169 171 172 174 173 170 168 168 167 169 175 181 186 192 195 196 196 196 196 199 204 210 215 220 226 231 237 241 244 248 250 253 255 258 261 264 267 269 270 270 270 270 269 268
43 56 66 79 95 107 117 125 132 138 140 145 154 156 155 157 160 157 155 158 163 165 166 169 170 169 171 172 172 176 183 185 188 192 194 194 193 195 201 210 220 230 238 245 250 254 258 261 263 266 268 271 274 276 278 279 279 278 277 276 276 276 275
80 78 76 79 86 94 101 107 114 122 124 127 135 140 139 141 144 143 140 138 143 151 158 166 172 175 177 177 174 176 183 189 191 193 196 201 205 211 220 229 239 247 252 257 260 263 266 268 270 272 274 276 277 278 279 280 280 281 281 280 280 280 280
92 94 93 94 95 97 98 98 101 106 111 113 116 118 120 123 124 121 114 108 106 111 124 139 156 176 188 191 189 183 181 185 192 196 203 212 220 227 234 239 245 249 253 256 257 260 263 265 269 271 273 275 277 279 281 282 282 281 281 283 285 287 289